HYLAS 1                 
1 37237U 10065A   19261.12341825 -.00000147  00000-0  00000+0 0  9991
2 37237   0.0979 287.3580 0002113 251.3188 204.2181  1.00270410 32308
INTELSAT 17 (IS-17)     
1 37238U 10065B   19260.86882586 -.00000006  00000-0  00000-0 0  9991
2 37238   0.0303 242.0696 0002831 309.2175 183.9858  1.00270510 28728